User: anonymous
Location: Donald C. Martin Observatory
(38.3885°N, 82.3916°W)
Time: 05:06:59
(UTC-04:00)
Language:

Cosmos 1484 Rocket - Orbit

View from above orbital plane
View from above orbital plane
View from above satellite
View from above satellite

Ground track
Ground track

The orbit data is extracted from the following two-line orbital elements,

1 14208U 83075B   14109.14732583  .00004561  00000-0  30507-3 0  9989
2 14208 097.4301 148.0563 0044125 143.5503 216.8743 15.06628104673319
Epoch (UTC): 19 April 2014 03:32:08
Eccentricity: 0.0044125
inclination: 97.4301°
perigee height: 516 km
apogee height: 577 km
right ascension of ascending node: 148.0563°
argument of perigee: 143.5503°
revolutions per day: 15.06628104
mean anomaly at epoch: 216.8743°
orbit number at epoch: 67331

The dashed part of the orbit path shows where the satellite is in the earth's shadow,  

DLR